Regional Weather Roundup
Issued by NWS

Home | Current Version | Previous Version | Graphics & Text | Print | Product List | Glossary On
Versions: 1 2 3 4 5 6 7 8 9 10 11 12 13 14 15 16 17 18 19 20 21 22 23 24 25 26 27 28 29 30 31 32 33 34 35 36 37 38 39 40 41 42 43 44 45 46 47
000
ASUS45 KBOU 270510
RWRCO

WEATHER ROUNDUP FOR COLORADO
NATIONAL WEATHER SERVICE PUEBLO CO
1100 PM MDT THU APR 26 2018

NOTE: "FAIR" INDICATES FEW OR NO CLOUDS BELOW 12000 FEET WITH NO
SIGNIFICANT WEATHER AND/OR OBSTRUCTIONS TO VISIBILITY.

COZ001>005-013-030-031-270600-
...NORTHWEST COLORADO...

CITY           SKY/WX    TMP DP  RH WIND       PRES   REMARKS
CRAIG          CLEAR     38  28  67 CALM      30.24S
HAYDEN         CLEAR     42  26  53 E5        30.26F
MEEKER         CLEAR     41  23  48 E7        30.24S
RABBIT EARS PA NOT AVBL
STEAMBOAT SPGS FAIR      42  23  47 N6        30.27R
WALDEN         FAIR      32  14  47 SE5       30.33S WCI  27
$$

COZ006>008-011-270600-
...WEST CENTRAL VALLEYS...

CITY           SKY/WX    TMP DP  RH WIND       PRES   REMARKS
GRAND JUNCTION CLEAR     61  23  23 SW5       30.11R
MONTROSE       CLEAR     51  21  30 SE12      30.18S
EAGLE          CLEAR     43  19  38 E6        30.27S
RIFLE          CLEAR     45  26  47 S7        30.18R
DELTA          NOT AVBL
NUCLA          FAIR      50  10  20 E9        30.19S
$$

COZ017>023-064>068-270600-
...SOUTHWEST COLORADO...

CITY           SKY/WX    TMP DP  RH WIND       PRES   REMARKS
DURANGO        CLEAR     50   7  17 E3        30.14R
CORTEZ         CLEAR     46  12  25 NE6       30.14R
PAGOSA SPRINGS FAIR      51   6  16 NE7       30.23S
TELLURIDE      CLEAR     42  16  34 SE6       30.33R
WOLF CREEK PAS CLEAR     34  10  37 N6        30.50S WCI  29
$$

COZ009-010-012-014-032>034-037-058>063-270600-
...CENTRAL COLORADO...

CITY           SKY/WX    TMP DP  RH WIND       PRES   REMARKS
ASPEN          CLEAR     41  22  46 SW9       30.28S
BUENA VISTA    FAIR      40  26  55 E3        30.36R
COPPER MTN     NOT AVBL
BERTHOUD PASS  FAIR      27  16  63 NW18      30.45S WCI  13
COTTONWOOD PAS CLEAR     41  28  60 CALM      30.40R
GUNNISON       CLEAR     44  20  38 N5        30.28R
KREMMLING      CLEAR     36  21  55 CALM      30.31S
LEADVILLE      CLEAR     32  16  51 S7        30.38R WCI  26
MONARCH PASS   CLEAR     30  23  74 CALM      30.56S
SALIDA         FAIR      45  26  48 SE8       30.42R
SUNLIGHT       CLEAR     34  14  44 E6        30.43F WCI  29
WILKERSON PASS CLEAR     32  21  64 W3        30.45F
$$

COZ069>075-270600-
...SAN LUIS VALLEY/SANGRE DE CRISTO MOUNTAINS...

CITY           SKY/WX    TMP DP  RH WIND       PRES   REMARKS
ALAMOSA        CLEAR     39  23  52 SW7       30.27R
DEL NORTE      FAIR      40  22  46 CALM      30.29S
LA VETA PASS   CLEAR     30  21  69 NE13      30.49F WCI  20
SAGUACHE       NOT AVBL
$$

COZ035-036-038>040-270600-
...NORTHERN COLORADO FRONT RANGE...

CITY           SKY/WX    TMP DP  RH WIND       PRES   REMARKS
DENVER INTL AP CLEAR     41  26  55 S14       30.25F
DMNS CITY PARK NOT AVBL
AURORA         CLEAR     40  26  56 S10       30.27S
FRONT RANGE AP FAIR      41  28  60 S9        30.27S
ERIE MUNI ARPT FAIR      41  32  70 CALM      30.30F
BOULDER MUN AP FAIR      45  30  57 CALM      30.24F
CENTENNIAL     CLEAR     41  28  60 S9        30.27S
BROOMFIELD     CLEAR     45  30  57 CALM      30.26F
LOVELAND       CLEAR     45  27  49 S6        30.25S
LONGMONT       FAIR      44  32  61 W5        30.27S
$$

COZ041-046-047-076>085-087-088-270600-
...PIKES PEAK/PALMER DIVIDE AND SOUTHERN FOOTHILLS...

CITY           SKY/WX    TMP DP  RH WIND       PRES   REMARKS
COLO. SPRINGS  CLEAR     40  27  59 CALM      30.31S
A. F. ACADEMY  CLEAR     32  25  76 N7        30.31S WCI  25
SCHRIEVER AFB  NOT AVBL
CHEYENNE MTN   NOT AVBL
ELLICOTT         N/A    N/A N/A N/A N3        30.29F
FALCON         FAIR      33  24  70 CALM      30.32S
FORT CARSON    CLEAR     46  24  42 SW7       30.29S
LIMON          CLEAR     27  24  89 CALM      30.27F
MONUMENT HILL  CLEAR     30  23  74 S6        30.32S WCI  24
CANON CITY     FAIR      46  32  57 N7        30.29S
WALSENBURG     FAIR      36  28  75 W9        30.31F
TRINIDAD       CLEAR     35  22  58 W9        30.31S WCI  28
$$

COZ042>045-048>051-090-091-270600-
...NORTHEAST COLORADO...

CITY           SKY/WX    TMP DP  RH WIND       PRES   REMARKS
GREELEY ARPT   CLEAR     42  26  53 NE3       30.24F
AKRON          CLEAR     46  25  43 CALM      30.23S
BURLINGTON     CLEAR     34  28  79 SW9       30.23S WCI  27
WRAY           FAIR      41  32  70 W5        30.21S
YUMA           NOT AVBL
STERLING       NOT AVBL
HOLYOKE        FAIR      39  32  75 W7        30.20F
FORT MORGAN    FAIR      40  24  53 CALM      30.24S
$$

COZ086-089-092>099-270600-
...SOUTHEAST COLORADO...

CITY           SKY/WX    TMP DP  RH WIND       PRES   REMARKS
PUEBLO         CLEAR     40  23  50 CALM      30.28R
LA JUNTA       CLEAR     50  26  39 CALM      30.26S
LAMAR          CLEAR     37  29  72 SW5       30.22S
SPRINGFIELD      N/A     35  25  66 NW9       30.25S WCI  28
$$





USA.gov is the U.S. government's official web portal to all federal, state and local government web resources and services.